Alma, MI

5:30 PM EST on February 20, 2018 (GMT -0500)
Gratiot Community

Weather History for KAMN - November, 2013

Change the Weather History Date:

Monday, November 4, 2013

  Actual Average Record
Temperature  
Mean Temperature 42 °F -  
Max Temperature 50 °F 51 °F 76 °F (1987)
Min Temperature 33 °F 32 °F 16 °F (1966)
Degree Days  
Heating Degree Days 24    
Moisture  
Dew Point 31 °F    
Average Humidity 67    
Maximum Humidity 93    
Minimum Humidity 41    
Precipitation  
Precipitation 0.00 in - - ()
Sea Level Pressure  
Sea Level Pressure 30.35 in    
Wind  
Wind Speed 8 mph (SE)    
Max Wind Speed 16 mph    
Max Gust Speed 23 mph    
Visibility 10 miles    
Events      
Averages and records for this station are not official NWS values.
T = Trace of Precipitation, MM = Missing Value Source: NWS Daily Summary

Daily Weather History Graph

Daily Weather History Graph

Search for Another Location

Airport or City:

Trip Planner

Search our weather history database for the weather conditions in past years. The results will help you decide how hot, cold, wet, or windy it might be!

Date:

Astronomy

Nov. 04, 2013 Rise Set
Actual Time 7:18 AM EST 5:25 PM EST
Civil Twilight 6:48 AM EST 5:55 PM EST
Nautical Twilight 6:14 AM EST 6:29 PM EST
Astronomical Twilight 5:40 AM EST 7:03 PM EST
Moon 8:29 AM EST (11/4) 6:28 PM EST (11/4)
Length of Visible Light 11h 07m
Length of Day
10h 07m
New Moon, 2% of the Moon is Illuminated
Nov 4
New Moon
Nov 10
First Quarter
Nov 17
Full
Nov 25
Last Quarter
Dec 2
New

Hourly Weather History & Observations

Time (EST) Temp. Windchill Dew Point Humidity Pressure Visibility Wind Dir Wind Speed Gust Speed Precip Events Conditions
12:13 AM 35.6 °F 30.7 °F 31.6 °F 85% 30.42 in 10.0 mi SE 5.8 mph - N/A   Clear
12:33 AM 34.9 °F 29.9 °F 31.3 °F 87% 30.43 in 10.0 mi ESE 5.8 mph - N/A   Clear
12:53 AM 35.1 °F 30.1 °F 31.1 °F 85% 30.43 in 10.0 mi ESE 5.8 mph - N/A   Clear
1:14 AM 34.9 °F 29.0 °F 31.1 °F 86% 30.42 in 10.0 mi ESE 6.9 mph - N/A   Clear
1:34 AM 34.7 °F 27.5 °F 31.1 °F 87% 30.42 in 10.0 mi ESE 9.2 mph - N/A   Clear
1:54 AM 34.7 °F 28.1 °F 30.9 °F 86% 30.42 in 10.0 mi ESE 8.1 mph - N/A   Clear
2:14 AM 34.7 °F 28.8 °F 30.9 °F 86% 30.42 in 10.0 mi ESE 6.9 mph - N/A   Clear
2:34 AM 34.7 °F 29.6 °F 30.9 °F 86% 30.43 in 10.0 mi ESE 5.8 mph - N/A   Clear
2:54 AM 34.5 °F 29.4 °F 30.7 °F 86% 30.44 in 10.0 mi SE 5.8 mph - N/A   Clear
3:14 AM 34.0 °F 28.8 °F 30.7 °F 88% 30.43 in 10.0 mi ESE 5.8 mph - N/A   Clear
3:31 AM 33.8 °F 28.6 °F 30.9 °F 89% 30.42 in 10.0 mi ESE 5.8 mph - N/A   Clear
3:51 AM 33.8 °F 29.6 °F 30.9 °F 89% 30.41 in 10.0 mi ESE 4.6 mph - N/A   Clear
4:14 AM 33.8 °F 29.6 °F 31.1 °F 90% 30.41 in 10.0 mi SE 4.6 mph - N/A   Clear
4:34 AM 33.4 °F 28.1 °F 31.1 °F 91% 30.42 in 10.0 mi ESE 5.8 mph - N/A   Clear
4:54 AM 33.8 °F 28.6 °F 31.6 °F 92% 30.41 in 10.0 mi ESE 5.8 mph - N/A   Clear
5:14 AM 34.2 °F 29.0 °F 32.0 °F 92% 30.41 in 10.0 mi SE 5.8 mph - N/A   Clear
5:34 AM 34.0 °F 31.0 °F 32.0 °F 92% 30.42 in 10.0 mi SE 3.5 mph - N/A   Clear
5:54 AM 33.8 °F 29.6 °F 32.0 °F 93% 30.43 in 10.0 mi SE 4.6 mph - N/A   Clear
6:14 AM 34.0 °F 31.0 °F 32.0 °F 92% 30.43 in 10.0 mi SE 3.5 mph - N/A   Clear
6:34 AM 34.7 °F 31.8 °F 32.9 °F 93% 30.41 in 10.0 mi SE 3.5 mph - N/A   Clear
6:54 AM 35.8 °F 30.9 °F 33.6 °F 92% 30.41 in 10.0 mi SE 5.8 mph - N/A   Clear
7:14 AM 37.2 °F 31.2 °F 34.0 °F 88% 30.41 in 10.0 mi SE 8.1 mph - N/A   Clear
7:35 AM 37.6 °F 32.3 °F 33.8 °F 86% 30.41 in 10.0 mi SE 6.9 mph - N/A   Clear
7:55 AM 38.1 °F 32.3 °F 33.4 °F 83% 30.41 in 10.0 mi SE 8.1 mph - N/A   Clear
8:15 AM 38.5 °F 32.1 °F 33.3 °F 81% 30.41 in 10.0 mi SE 9.2 mph - N/A   Clear
8:35 AM 39.0 °F 32.8 °F 32.9 °F 79% 30.41 in 10.0 mi SE 9.2 mph - N/A   Clear
8:55 AM 39.7 °F 33.7 °F 32.7 °F 76% 30.41 in 10.0 mi SE 9.2 mph - N/A   Clear
9:10 AM 40.1 °F 32.7 °F 32.4 °F 74% 30.41 in 10.0 mi SE 12.7 mph - N/A   Clear
9:30 AM 40.6 °F 33.4 °F 32.4 °F 72% 30.41 in 10.0 mi SE 12.7 mph 19.6 mph N/A   Clear
9:50 AM 41.2 °F 35.5 °F 32.0 °F 70% 30.41 in 10.0 mi SE 9.2 mph - N/A   Clear
10:10 AM 42.3 °F 35.5 °F 32.2 °F 67% 30.40 in 10.0 mi SE 12.7 mph 21.9 mph N/A   Clear
10:30 AM 42.8 °F 36.6 °F 31.8 °F 65% 30.40 in 10.0 mi SE 11.5 mph 18.4 mph N/A   Clear
10:51 AM 44.6 °F 39.7 °F 32.4 °F 62% 30.41 in 10.0 mi SSE 9.2 mph 16.1 mph N/A   Clear
11:11 AM 45.5 °F 39.9 °F 31.1 °F 57% 30.39 in 10.0 mi SE 11.5 mph 17.3 mph N/A   Clear
11:31 AM 46.2 °F 39.5 °F 29.8 °F 53% 30.39 in 10.0 mi SE 16.1 mph 20.7 mph N/A   Clear
11:51 AM 45.7 °F 40.6 °F 31.1 °F 57% 30.38 in 10.0 mi SE 10.4 mph 17.3 mph N/A   Clear
12:11 PM 45.7 °F 40.2 °F 30.7 °F 56% 30.36 in 10.0 mi SE 11.5 mph 18.4 mph N/A   Clear
12:31 PM 46.6 °F - 30.6 °F 54% 30.35 in 10.0 mi SE 9.2 mph 16.1 mph N/A   Clear
12:51 PM 47.8 °F - 29.1 °F 48% 30.35 in 10.0 mi SE 12.7 mph 20.7 mph N/A   Clear
1:11 PM 48.2 °F - 28.8 °F 47% 30.34 in 10.0 mi SE 11.5 mph 18.4 mph N/A   Clear
1:31 PM 49.1 °F - 28.4 °F 45% 30.33 in 10.0 mi SE 11.5 mph 18.4 mph N/A   Clear
1:52 PM 48.7 °F - 28.2 °F 45% 30.31 in 10.0 mi SE 13.8 mph 19.6 mph N/A   Clear
2:12 PM 48.7 °F - 28.2 °F 45% 30.31 in 10.0 mi SE 15.0 mph 20.7 mph N/A   Clear
2:32 PM 49.6 °F - 28.8 °F 45% 30.29 in 10.0 mi SE 12.7 mph 16.1 mph N/A   Clear
2:52 PM 50.4 °F - 27.1 °F 41% 30.29 in 10.0 mi SE 12.7 mph 23.0 mph N/A   Clear
3:12 PM 49.5 °F - 27.0 °F 42% 30.29 in 10.0 mi SE 10.4 mph 17.3 mph N/A   Clear
3:32 PM 49.1 °F - 26.6 °F 42% 30.29 in 10.0 mi SE 11.5 mph 18.4 mph N/A   Clear
3:52 PM 49.3 °F - 26.8 °F 42% 30.27 in 10.0 mi ESE 11.5 mph - N/A   Clear
4:12 PM 49.5 °F - 26.4 °F 41% 30.28 in 10.0 mi SE 10.4 mph 16.1 mph N/A   Clear
4:32 PM 49.1 °F - 26.1 °F 41% 30.27 in 10.0 mi SE 9.2 mph 18.4 mph N/A   Clear
4:52 PM 48.2 °F - 27.1 °F 44% 30.26 in 10.0 mi SE 11.5 mph 16.1 mph N/A   Clear
5:13 PM 47.7 °F - 27.5 °F 46% 30.26 in 10.0 mi SE 9.2 mph - N/A   Clear
5:33 PM 47.1 °F - 28.0 °F 48% 30.26 in 10.0 mi SE 9.2 mph - N/A   Clear
5:53 PM 46.8 °F - 28.0 °F 48% 30.26 in 10.0 mi SE 9.2 mph - N/A   Clear
6:13 PM 46.2 °F 42.7 °F 28.8 °F 51% 30.26 in 10.0 mi SE 6.9 mph - N/A   Clear
6:33 PM 46.0 °F 42.5 °F 28.6 °F 51% 30.26 in 10.0 mi SSE 6.9 mph - N/A   Clear
6:53 PM 45.5 °F 42.5 °F 29.3 °F 53% 30.26 in 10.0 mi SSE 5.8 mph - N/A   Scattered Clouds
7:13 PM 45.1 °F 40.3 °F 30.0 °F 55% 30.26 in 10.0 mi SE 9.2 mph - N/A   Mostly Cloudy
7:33 PM 45.0 °F 41.2 °F 29.8 °F 55% 30.26 in 10.0 mi SSE 6.9 mph - N/A   Mostly Cloudy
7:53 PM 45.1 °F 42.0 °F 29.5 °F 54% 30.26 in 10.0 mi SSE 5.8 mph - N/A   Overcast
8:14 PM 44.6 °F 42.2 °F 30.9 °F 59% 30.26 in 10.0 mi SSE 4.6 mph - N/A   Overcast
8:34 PM 44.1 °F 40.1 °F 30.7 °F 59% 30.26 in 10.0 mi SSE 6.9 mph - N/A   Mostly Cloudy
8:54 PM 44.6 °F 40.7 °F 31.1 °F 59% 30.26 in 10.0 mi SSE 6.9 mph - N/A   Mostly Cloudy
9:14 PM 44.6 °F 40.7 °F 31.1 °F 59% 30.26 in 10.0 mi SSE 6.9 mph - N/A   Overcast
9:34 PM 44.2 °F 40.3 °F 31.8 °F 62% 30.26 in 10.0 mi SSE 6.9 mph - N/A   Overcast
9:54 PM 44.6 °F 41.4 °F 32.0 °F 61% 30.25 in 10.0 mi SSE 5.8 mph - N/A   Overcast
10:14 PM 44.6 °F 42.2 °F 32.0 °F 61% 30.25 in 10.0 mi SSE 4.6 mph - N/A   Overcast
10:34 PM 44.6 °F 40.2 °F 32.4 °F 62% 30.25 in 10.0 mi SSE 8.1 mph - N/A   Overcast
10:55 PM 45.0 °F 41.8 °F 32.7 °F 62% 30.25 in 10.0 mi South 5.8 mph - N/A   Overcast
11:15 PM 45.0 °F 42.6 °F 33.4 °F 64% 30.24 in 10.0 mi South 4.6 mph - N/A   Overcast
11:35 PM 45.5 °F 41.8 °F 33.8 °F 64% 30.24 in 10.0 mi South 6.9 mph - N/A   Overcast
11:55 PM 45.5 °F 42.5 °F 34.7 °F 66% 30.24 in 10.0 mi South 5.8 mph - N/A   Overcast